Weather History for KMQY - March, 2013

Change the Weather History Date:

Thursday, March 7, 2013

  Actual Average Record
Temperature  
Mean Temperature 34 °F -  
Max Temperature 41 °F 53 °F 77 °F (2009)
Min Temperature 27 °F 37 °F 20 °F (2015)
Degree Days  
Heating Degree Days 31    
Moisture  
Dew Point 27 °F    
Average Humidity 75    
Maximum Humidity 92    
Minimum Humidity 58    
Precipitation  
Precipitation 0.00 in - - ()
Sea Level Pressure  
Sea Level Pressure 30.42 in    
Wind  
Wind Speed 6 mph (NE)    
Max Wind Speed 10 mph    
Max Gust Speed -    
Visibility 10 miles    
Events      
Averages and records for this station are not official NWS values.
T = Trace of Precipitation, MM = Missing Value Source: NWS Daily Summary

Daily Weather History Graph

Daily Weather History Graph

Search for Another Location

Airport or City:

Trip Planner

Search our weather history database for the weather conditions in past years. The results will help you decide how hot, cold, wet, or windy it might be!

Date:

Astronomy

Mar. 07, 2013 Rise Set
Actual Time 6:07 AM CST 5:46 PM CST
Civil Twilight 5:42 AM CST 6:12 PM CST
Nautical Twilight 5:12 AM CST 6:42 PM CST
Astronomical Twilight 4:42 AM CST 7:11 PM CST
Moon 3:00 AM CST (3/7) 1:40 PM CST (3/7)
Length of Visible Light 12h 30m
Length of Day
11h 38m
Waning Crescent, 20% of the Moon is Illuminated
Mar 7
Waning Crescent
Mar 11
New
Mar 19
First Quarter
Mar 27
Full
Apr 2
Last Quarter

Hourly Weather History & Observations

Time (CST) Temp. Windchill Dew Point Humidity Pressure Visibility Wind Dir Wind Speed Gust Speed Precip Events Conditions
12:56 AM 32.0 °F 24.8 °F 26.1 °F 79% 30.38 in 10.0 mi North 8.1 mph - N/A   Overcast
1:56 AM 32.0 °F 25.6 °F 26.1 °F 79% 30.38 in 10.0 mi North 6.9 mph - N/A   Overcast
2:56 AM 32.0 °F 25.6 °F 26.1 °F 79% 30.38 in 10.0 mi North 6.9 mph - N/A   Overcast
3:56 AM 32.0 °F 24.8 °F 26.1 °F 79% 30.38 in 10.0 mi NNE 8.1 mph - N/A   Overcast
4:56 AM 32.0 °F 24.2 °F 26.1 °F 79% 30.40 in 10.0 mi NNE 9.2 mph - N/A   Overcast
5:56 AM 31.1 °F 23.7 °F 26.1 °F 82% 30.42 in 10.0 mi NE 8.1 mph - N/A   Overcast
6:56 AM 31.1 °F 25.4 °F 26.1 °F 82% 30.45 in 10.0 mi North 5.8 mph - N/A   Overcast
7:56 AM 32.0 °F 25.6 °F 26.1 °F 79% 30.45 in 10.0 mi NE 6.9 mph - N/A   Overcast
8:56 AM 32.9 °F 25.3 °F 26.1 °F 76% 30.45 in 10.0 mi ENE 9.2 mph - N/A   Overcast
9:56 AM 34.0 °F 28.0 °F 27.1 °F 76% 30.45 in 10.0 mi NE 6.9 mph - N/A   Overcast
10:56 AM 34.9 °F - 27.1 °F 73% 30.45 in 10.0 mi Calm Calm - N/A   Overcast
11:56 AM 36.9 °F 31.4 °F 27.1 °F 68% 30.45 in 10.0 mi NNE 6.9 mph - N/A   Overcast
12:56 PM 37.9 °F 34.4 °F 28.0 °F 68% 30.42 in 10.0 mi East 4.6 mph - N/A   Overcast
1:56 PM 41.0 °F 35.2 °F 28.0 °F 60% 30.41 in 10.0 mi NE 9.2 mph - N/A   Scattered Clouds
2:56 PM 41.9 °F 35.9 °F 29.1 °F 61% 30.40 in 10.0 mi NNE 10.4 mph - N/A   Scattered Clouds
3:56 PM 41.9 °F 36.9 °F 28.0 °F 58% 30.40 in 10.0 mi NE 8.1 mph - N/A   Partly Cloudy
4:56 PM 41.0 °F 35.2 °F 28.0 °F 60% 30.40 in 10.0 mi ENE 9.2 mph - N/A   Partly Cloudy
5:56 PM 36.9 °F 31.4 °F 28.0 °F 70% 30.42 in 10.0 mi East 6.9 mph - N/A   Clear
6:56 PM 34.9 °F - 28.0 °F 76% 30.43 in 10.0 mi Calm Calm - N/A   Clear
7:56 PM 32.9 °F - 27.1 °F 79% 30.42 in 10.0 mi Calm Calm - N/A   Clear
8:56 PM 32.0 °F - 27.1 °F 82% 30.43 in 10.0 mi Calm Calm - N/A   Clear
9:56 PM 31.1 °F - 27.1 °F 85% 30.42 in 10.0 mi Calm Calm - N/A   Clear
10:56 PM 27.1 °F - 25.2 °F 92% 30.41 in 10.0 mi Calm Calm - N/A   Clear
11:56 PM 27.1 °F - 24.1 °F 88% 30.41 in 10.0 mi Calm Calm - N/A   Clear